[Date Prev][Date Next][Thread Prev][Thread Next] - [Date Index][Thread Index][Author Index]
2 Line ISS Keps 5-17
- Subject: [sarex] 2 Line ISS Keps 5-17
- From: "Dave Larsen PhD" <doc@xxxxxxxxxxx>
- Date: Fri, 17 May 2002 06:24:41 -0700
ISS
1 25544U 98067A 02137.47388889 .00021587 00000-0 27346-3 0 4586
2 25544 51.6354 207.3565 0006646 86.6492 105.2356 15.59393156199234
----
Via the sarex mailing list at AMSAT.ORG courtesy of AMSAT-NA.
To unsubscribe, send "unsubscribe sarex" to Majordomo@amsat.org
AMSAT Home